Location: Gälforsberget
(66.6500°N, 22.4167°E)
Time: 08:38:42
(UTC+00:00)

Okean 1 Rocket - Pass Details

Date: 11 April 2026
Orbit: 601 x 625 km, 82.5° (Epoch: 9 May)

Event Time Altitude Azimuth Distance (km) Brightness Sun altitude
Exits shadow 22:45:11 25° 176° (S) 1,223 4.0 -14.7°
Maximum altitude 22:47:33 64° 102° (ESE) 678 3.2 -14.7°
Drops below altitude 10° 22:51:52 10° 21° (NNE) 1,972 6.9 -14.7°
Sets 22:54:07 0° 19° (NNE) 2,884 8.2 -14.6°
